Tracking 29892 objects as of 21-Nov-2024
HD Live streaming from Space Station
objects crossing your sky now

SL-16 R/B

Track SL-16 R/B now!
10-day predictions
SL-16 R/B is classified as:


NORAD ID: 24298
Int'l Code: 1996-051B
Perigee: 848.3 km
Apogee: 868.0 km
Inclination: 70.8 °
Period: 102.0 minutes
Semi major axis: 7229 km
RCS: 8.785 m2 (large)
Launch date: September 4, 1996
Source: Commonwealth of Independent States (former USSR) (CIS)
Launch site: TYURATAM MISSILE AND SPACE COMPLEX (TTMTR)

Note: This is a ROCKET BODY
Your satellite tracking list
Your tracking list is empty




NASA's NSSDC Master Catalog

Two Line Element Set (TLE):
1 24298U 96051B   24325.87663391 -.00000138  00000-0 -48004-4 0  9999
2 24298  70.7861  97.6873 0013644 115.1614 245.0922 14.12456136454744
Source of the keplerian elements: AFSPC